Home > Time Zones > World Clock > Weather > India > Surat > Past weeks

Flag for India Weather past 2 weeks in Surat, Gujarat, India

Now
82 °F

Passing clouds.


Feels Like: 88 °F
Forecast: 80 / 86 °F
Wind: 8 mph from Southwest

Location: Ahmadabad Airport

Current Time: Jul 30, 2015 at 11:53:11 PM

Latest Report: Jul 30, 2015 at 11:10 PM


Visibility: 2 mi

Pressure: 29.68 "Hg

Humidity: 74%

Dew point: 73 °F

Location of SuratLocation

Historic Weather in Surat — Graph

°F

Surat temperature yesterday

Maximum temperature yesterday: 86 °F (at 2:10 PM)
Minimum temperature yesterday: 77 °F (at 1:40 AM)
Average temperature yesterday: 81 °F

Past Weeks' High & Low Weather Summary

 TemperatureHumidityPressure
High100 °F (Jul 18, 4:40 PM)100% (Jul 26, 3:10 PM)29.68 "Hg (Jul 26, 3:10 PM)
Low73 °F (Jul 27, 4:40 PM)42% (Jul 17, 5:40 PM)29.39 "Hg (Jul 16, 3:40 PM)
Average85 °F75%29.54 "Hg
* Reported Jul 15 10:40 PM — Jul 30 10:40 PM, Surat, Weather by CustomWeather, © 2015

Note: Actual official high and low records may vary slightly from our data, if they occured in-between our weather recording intervals... More about our weather records

Advertising

Surat weather history for previous 24 hours

 ConditionsComfort  
Time TempWeatherWind HumidityBarometerVisibility
10:40 PM
Thu, Jul 30
82 °FPassing clouds.10 mph79%29.68 "Hg2 mi
9:10 PM82 °FPassing clouds.9 mph79%29.65 "Hg2 mi
8:40 PM82 °FPassing clouds.9 mph79%29.65 "Hg2 mi
8:10 PM82 °FPassing clouds.9 mph79%29.65 "Hg2 mi
7:40 PM84 °FScattered clouds.9 mph74%29.62 "Hg2 mi
5:40 PM90 °FBroken clouds.15 mph67%29.59 "Hg4 mi
5:10 PM90 °FBroken clouds.15 mph67%29.59 "Hg4 mi
4:40 PM90 °FBroken clouds.14 mph67%29.59 "Hg4 mi
4:10 PM90 °FBroken clouds.14 mph67%29.62 "Hg4 mi
3:40 PM88 °FBroken clouds.13 mph70%29.62 "Hg4 mi
3:10 PM88 °FBroken clouds.14 mph70%29.62 "Hg4 mi
2:10 PM88 °FBroken clouds.12 mph70%29.65 "Hg4 mi
1:40 PM88 °FBroken clouds.12 mph70%29.65 "Hg3 mi
1:10 PM88 °FBroken clouds.15 mph75%29.65 "Hg3 mi
12:10 PM86 °FBroken clouds.14 mph75%29.68 "Hg2 mi
11:10 AM84 °FMore clouds than sun.7 mph79%29.68 "Hg2 mi
10:40 AM84 °FMore clouds than sun.9 mph79%29.68 "Hg2 mi
10:10 AM82 °FMore clouds than sun.6 mph84%29.68 "Hg2 mi
9:40 AM81 °FMore clouds than sun.7 mph84%29.68 "Hg2 mi
9:10 AM81 °FMore clouds than sun.6 mph84%29.65 "Hg2 mi
8:40 AM81 °FMore clouds than sun.6 mph84%29.65 "Hg2 mi
3:10 AM81 °FPassing clouds.9 mph84%29.59 "Hg2 mi
2:40 AM81 °FPassing clouds.9 mph79%29.62 "Hg2 mi
12:10 AM81 °FPassing clouds.9 mph79%29.65 "Hg2 mi
11:10 PM
Wed, Jul 29
81 °FPassing clouds.8 mph79%29.62 "Hg2 mi
Weather by CustomWeather, © 2015

See weather overviewHow to use our weather pages